N220PD FA08-KTPA

Flight info

Callsign N220PD
Flight time N/A
Altitude 2500
Route DCT
Aircraft C208/L-SDFGR/C

Departure

Time 2026-04-18 17:42
Airport Orlampa Inc Airport / Fantasy of Flight (FA08)

Arrival

Time N/A
Airport Tampa International Airport (KTPA)
Time Latitude Longitude Altitude Speed Heading
2026-04-18 17:33 28.16919 -81.80876 139 ft 0 kts 214°
2026-04-18 17:37 28.16903 -81.80885 139 ft 8 kts 198°
2026-04-18 17:37 28.16836 -81.80913 138 ft 8 kts 172°
2026-04-18 17:38 28.16799 -81.80883 138 ft 5 kts 152°
2026-04-18 17:38 28.16750 -81.80892 138 ft 13 kts 217°
2026-04-18 17:38 28.16692 -81.80956 138 ft 9 kts 262°
2026-04-18 17:38 28.16726 -81.81007 138 ft 6 kts 315°
2026-04-18 17:39 28.16761 -81.81046 138 ft 9 kts 311°
2026-04-18 17:39 28.16826 -81.81124 138 ft 15 kts 323°
2026-04-18 17:39 28.16907 -81.81200 138 ft 13 kts 317°
2026-04-18 17:39 28.16967 -81.81264 138 ft 10 kts 314°
2026-04-18 17:40 28.16985 -81.81295 138 ft 0 kts 217°
2026-04-18 17:40 28.16979 -81.81288 138 ft 0 kts 124°
2026-04-18 17:40 28.16978 -81.81287 138 ft 0 kts 135°
2026-04-18 17:41 28.16828 -81.81114 138 ft 66 kts 136°
2026-04-18 17:41 28.16391 -81.80685 310 ft 91 kts 145°
2026-04-18 17:41 28.15848 -81.80247 547 ft 104 kts 149°
2026-04-18 17:42 28.15076 -81.80084 746 ft 121 kts 185°
2026-04-18 17:42 28.14275 -81.80497 961 ft 132 kts 214°
2026-04-18 17:42 28.13581 -81.81200 1233 ft 134 kts 224°
2026-04-18 17:42 28.12945 -81.81993 1468 ft 138 kts 225°
2026-04-18 17:43 28.12296 -81.82818 1684 ft 141 kts 225°
2026-04-18 17:43 28.11642 -81.83646 1897 ft 143 kts 225°
2026-04-18 17:43 28.10990 -81.84511 2108 ft 145 kts 236°
2026-04-18 17:43 28.10743 -81.85629 2326 ft 148 kts 259°
2026-04-18 17:44 28.10616 -81.86795 2432 ft 156 kts 263°
2026-04-18 17:44 28.10601 -81.88064 2438 ft 163 kts 269°
2026-04-18 17:44 28.10612 -81.89357 2435 ft 165 kts 269°
2026-04-18 17:44 28.10637 -81.90656 2434 ft 166 kts 269°
2026-04-18 17:45 28.10660 -81.91971 2434 ft 166 kts 269°
2026-04-18 17:45 28.10686 -81.93276 2434 ft 167 kts 269°
2026-04-18 17:45 28.10711 -81.94582 2433 ft 167 kts 269°
2026-04-18 17:45 28.10736 -81.95900 2432 ft 167 kts 269°
2026-04-18 17:46 28.10760 -81.97218 2433 ft 167 kts 270°
2026-04-18 17:46 28.10785 -81.98537 2433 ft 167 kts 269°
2026-04-18 17:46 28.10809 -81.99845 2433 ft 166 kts 270°
2026-04-18 17:46 28.10830 -82.01156 2433 ft 166 kts 269°